User: anonymous   Login
Location: Unspecified
(0.0000°N, 0.0000°E)
Time: 20:56:21
(UTC+00:00)
Language:

AEHF 1 (USA 214) - Orbit

View from above orbital plane
View from above orbital plane
View from above satellite
View from above satellite

Ground track
Ground track

The orbit data is extracted from the following two-line orbital elements,

1 36868U 10039A   18108.76273659 0.00000000  00000-0  00000-0 0    00
2 36868   0.9732 125.4154 0003453 159.0719 200.9571  1.00270000    07
Epoch (UTC): 18 April 2018 18:18:20
Eccentricity: 0.0003453
inclination: 0.9732°
perigee height: 35772 km
apogee height: 35801 km
right ascension of ascending node: 125.4154°
argument of perigee: 159.0719°
revolutions per day: 1.00270000
mean anomaly at epoch: 200.9571°
orbit number at epoch: 0

The dashed part of the orbit path shows where the satellite is in the earth's shadow,  

DLR